Total_Precipitation_Accumulation
0.10 0.13 0.16 0.22 0.29 0.35 0.38 0.40 0.40 0.44 0.54 0.56 0.52 0.43 0.37 0.35 0.31 0.28 0.25 0.20 0.17 0.15 0.10 0.06 0.05 0.04 0.04 0.04 0.05 0.06 0.05 0.05 0.05 0.04 0.02 0.01 0.01 0.00 0.00 0.01 0.01 0.01 0.01
0.06 0.08 0.11 0.12 0.16 0.22 0.28 0.32 0.33 0.36 0.39 0.44 0.50 0.51 0.55 0.54 0.46 0.42 0.34 0.25 0.22 0.21 0.17 0.13 0.12 0.11 0.10 0.09 0.09 0.09 0.10 0.09 0.10 0.10 0.09 0.03 0.01 0.00 0.00 0.01 0.01 0.01 0.01
0.02 0.04 0.06 0.08 0.10 0.14 0.20 0.27 0.32 0.35 0.39 0.49 0.61 0.62 0.60 0.52 0.42 0.31 0.26 0.26 0.28 0.29 0.25 0.24 0.23 0.22 0.20 0.15 0.13 0.14 0.15 0.14 0.13 0.13 0.16 0.10 0.03 0.02 0.01 0.01 0.01 0.01 0.01
0.01 0.01 0.02 0.04 0.06 0.08 0.13 0.17 0.23 0.29 0.35 0.46 0.50 0.45 0.38 0.32 0.30 0.36 0.40 0.43 0.41 0.39 0.35 0.34 0.32 0.29 0.26 0.21 0.19 0.19 0.18 0.17 0.15 0.13 0.12 0.13 0.10 0.10 0.05 0.01 0.02 0.02 0.02
0.01 0.01 0.01 0.02 0.03 0.06 0.10 0.13 0.18 0.24 0.33 0.40 0.45 0.49 0.42 0.36 0.40 0.44 0.43 0.41 0.39 0.39 0.39 0.38 0.36 0.31 0.28 0.28 0.29 0.29 0.27 0.24 0.21 0.19 0.17 0.18 0.14 0.10 0.12 0.08 0.04 0.04 0.05
0.00 0.01 0.01 0.01 0.01 0.03 0.05 0.09 0.13 0.17 0.22 0.31 0.40 0.38 0.34 0.35 0.36 0.39 0.40 0.37 0.34 0.33 0.33 0.35 0.33 0.32 0.32 0.33 0.34 0.36 0.35 0.34 0.30 0.26 0.23 0.25 0.22 0.16 0.17 0.17 0.11 0.10 0.09
0.00 0.00 0.00 0.00 0.00 0.00 0.02 0.04 0.07 0.09 0.12 0.21 0.27 0.28 0.32 0.35 0.34 0.37 0.38 0.35 0.30 0.26 0.26 0.30 0.31 0.32 0.34 0.38 0.41 0.41 0.40 0.41 0.38 0.33 0.30 0.31 0.30 0.28 0.28 0.27 0.18 0.14 0.11
0.00 0.00 0.00 0.00 0.00 0.00 0.01 0.03 0.04 0.05 0.08 0.14 0.19 0.23 0.26 0.27 0.27 0.31 0.32 0.34 0.33 0.34 0.36 0.37 0.38 0.39 0.41 0.41 0.43 0.44 0.44 0.45 0.43 0.39 0.36 0.32 0.30 0.30 0.30 0.32 0.33 0.29 0.21
0.00 0.00 0.00 0.00 0.00 0.00 0.01 0.02 0.03 0.04 0.06 0.09 0.12 0.14 0.16 0.17 0.19 0.22 0.24 0.26 0.28 0.30 0.33 0.37 0.39 0.38 0.38 0.38 0.40 0.41 0.42 0.43 0.42 0.40 0.39 0.37 0.33 0.33 0.34 0.37 0.43 0.51 0.49
0.00 0.00 0.00 0.00 0.00 0.00 0.01 0.01 0.03 0.04 0.06 0.09 0.09 0.09 0.10 0.12 0.15 0.16 0.14 0.15 0.18 0.20 0.23 0.27 0.29 0.30 0.30 0.31 0.33 0.34 0.35 0.38 0.37 0.38 0.39 0.39 0.37 0.37 0.38 0.42 0.49 0.57 0.65
0.01 0.00 0.00 0.00 0.00 0.01 0.01 0.03 0.04 0.06 0.07 0.07 0.06 0.07 0.08 0.10 0.11 0.12 0.13 0.14 0.15 0.14 0.17 0.20 0.23 0.24 0.24 0.24 0.25 0.25 0.27 0.30 0.31 0.32 0.35 0.37 0.37 0.39 0.41 0.46 0.53 0.61 0.69
0.01 0.00 0.00 0.00 0.00 0.01 0.03 0.06 0.08 0.08 0.06 0.06 0.05 0.06 0.08 0.09 0.10 0.10 0.11 0.12 0.13 0.13 0.14 0.16 0.17 0.17 0.18 0.19 0.20 0.21 0.22 0.23 0.26 0.29 0.33 0.36 0.37 0.39 0.41 0.45 0.51 0.57 0.62
0.01 0.01 0.01 0.01 0.01 0.02 0.05 0.09 0.10 0.08 0.06 0.06 0.06 0.07 0.08 0.10 0.10 0.11 0.11 0.11 0.12 0.12 0.12 0.13 0.13 0.14 0.14 0.15 0.16 0.18 0.20 0.21 0.23 0.24 0.27 0.29 0.31 0.34 0.36 0.38 0.42 0.45 0.46
0.03 0.03 0.03 0.03 0.03 0.04 0.07 0.09 0.08 0.09 0.10 0.10 0.10 0.11 0.13 0.14 0.14 0.14 0.13 0.12 0.11 0.10 0.09 0.08 0.07 0.08 0.08 0.10 0.12 0.14 0.16 0.18 0.18 0.19 0.21 0.23 0.27 0.31 0.35 0.37 0.38 0.38 0.36
0.04 0.04 0.04 0.04 0.05 0.05 0.07 0.08 0.10 0.14 0.17 0.18 0.17 0.16 0.16 0.17 0.16 0.15 0.12 0.10 0.08 0.06 0.05 0.06 0.06 0.06 0.06 0.07 0.08 0.10 0.13 0.17 0.21 0.25 0.29 0.33 0.38 0.39 0.36 0.32 0.29 0.27 0.27
0.03 0.03 0.03 0.03 0.03 0.04 0.07 0.10 0.14 0.21 0.25 0.26 0.22 0.18 0.18 0.18 0.16 0.14 0.12 0.10 0.08 0.07 0.06 0.07 0.08 0.10 0.13 0.20 0.17 0.14 0.15 0.21 0.26 0.30 0.33 0.36 0.38 0.34 0.31 0.27 0.23 0.23 0.26
0.03 0.02 0.02 0.01 0.02 0.04 0.11 0.18 0.23 0.29 0.31 0.34 0.32 0.26 0.23 0.21 0.17 0.15 0.16 0.18 0.18 0.18 0.18 0.19 0.20 0.22 0.30 0.37 0.32 0.31 0.26 0.27 0.29 0.29 0.28 0.25 0.23 0.20 0.16 0.16 0.18 0.19 0.18
0.02 0.02 0.03 0.02 0.03 0.06 0.14 0.21 0.28 0.38 0.39 0.39 0.38 0.37 0.37 0.38 0.38 0.38 0.39 0.39 0.38 0.38 0.40 0.42 0.43 0.44 0.47 0.46 0.37 0.32 0.28 0.27 0.26 0.23 0.19 0.15 0.11 0.09 0.08 0.11 0.14 0.08 0.04
0.02 0.01 0.02 0.03 0.03 0.06 0.13 0.20 0.32 0.45 0.54 0.57 0.56 0.57 0.59 0.64 0.68 0.70 0.69 0.68 0.69 0.68 0.65 0.60 0.54 0.50 0.48 0.42 0.32 0.26 0.22 0.20 0.16 0.12 0.09 0.06 0.04 0.04 0.08 0.10 0.07 0.02 0.01
0.06 0.05 0.04 0.06 0.08 0.11 0.17 0.29 0.45 0.59 0.68 0.69 0.72 0.75 0.78 0.82 0.79 0.79 0.76 0.68 0.62 0.60 0.58 0.54 0.50 0.43 0.35 0.27 0.19 0.15 0.12 0.09 0.06 0.03 0.02 0.02 0.02 0.05 0.08 0.06 0.04 0.02 0.00
0.17 0.17 0.18 0.20 0.22 0.25 0.33 0.47 0.58 0.66 0.68 0.68 0.68 0.70 0.67 0.64 0.58 0.56 0.53 0.48 0.43 0.37 0.32 0.28 0.23 0.18 0.14 0.10 0.07 0.04 0.03 0.02 0.02 0.01 0.01 0.01 0.03 0.05 0.06 0.05 0.02 0.01 0.04
0.22 0.28 0.34 0.37 0.37 0.39 0.45 0.52 0.54 0.54 0.51 0.49 0.46 0.43 0.37 0.31 0.27 0.25 0.23 0.21 0.18 0.16 0.12 0.09 0.07 0.04 0.03 0.02 0.02 0.01 0.01 0.02 0.02 0.01 0.00 0.01 0.03 0.04 0.03 0.01 0.01 0.03 0.02
0.09 0.14 0.20 0.24 0.24 0.24 0.26 0.28 0.26 0.22 0.19 0.16 0.14 0.12 0.10 0.08 0.07 0.05 0.04 0.04 0.03 0.03 0.02 0.02 0.01 0.01 0.00 0.00 0.00 0.00 0.01 0.02 0.02 0.01 0.02 0.02 0.02 0.01 0.00 0.00 0.00 0.00 0.00
0.03 0.04 0.06 0.07 0.07 0.07 0.08 0.08 0.06 0.04 0.03 0.03 0.02 0.02 0.02 0.02 0.02 0.02 0.02 0.02 0.01 0.01 0.00 0.00 0.00 0.00 0.00 0.00 0.00 0.00 0.01 0.02 0.01 0.01 0.01 0.01 0.00 0.00 0.00 0.00 0.00 0.00 0.00
0.03 0.03 0.04 0.04 0.04 0.04 0.04 0.04 0.04 0.03 0.03 0.02 0.02 0.02 0.02 0.02 0.02 0.02 0.02 0.03 0.02 0.02 0.02 0.01 0.01 0.00 0.00 0.00 0.01 0.02 0.02 0.02 0.02 0.02 0.00 0.00 0.00 0.00 0.00 0.00 0.00 0.00 0.00
0.04 0.04 0.04 0.05 0.05 0.06 0.06 0.07 0.06 0.06 0.06 0.06 0.05 0.05 0.04 0.04 0.04 0.04 0.04 0.05 0.05 0.05 0.04 0.03 0.02 0.01 0.01 0.01 0.01 0.02 0.02 0.02 0.02 0.01 0.00 0.00 0.00 0.00 0.00 0.00 0.00 0.00 0.01